Terminal Aerodrome Forecast
Issued by NWS Mt. Holly, NJ

Home | Current Version | Previous Version | Text Only | Print | Product List | Glossary On
Versions: 1 2 3 4 5 6 7 8 9 10 11 12 13 14 15 16 17 18 19 20 21 22 23 24 25 26 27 28 29 30 31 32 33 34 35 36 37 38 39 40 41 42 43 44 45 46 47 48 49 50
000
FTAK31 PANC 272359 AAA
TAFABE
TAF AMD
PABE 272359Z 2800/2824 11013G20KT P6SM SCT080 OVC120 WS020/14045KT
     FM280600 14018G28KT 4SM -SNRA SCT015 OVC025 WS020/16045KT
     FM281200 14010G18KT 6SM -SNRA SCT025 BKN035
     FM282000 06010KT 3SM -SNRA SCT015 OVC025 WS020/15030KT=

USA.gov is the U.S. government's official web portal to all federal, state and local government web resources and services.